カマラーサ-ドゥサノヴィッツ彗星

C/2023 V4 ( Camarasa-Duszanowicz )

English version
Home page
Updated on August 10, 2025

---------------------------------------------------------------------

・ プロフィール

発見日 2023年11月5日
発見光度 18.7等
発見者 Jordi Camarasa (Sabadell, Barcelona, Spain), Grzegorz Duszanowicz (Akersberga, Sweden)

・ 写真集

・ 軌道要素

Epoch 2025 May 5.0 TT = JDT 2460800.5
T 2024 May 30.38631 TT                                  Pike
q   1.1218784            (2000.0)            P               Q
z  -0.0010165      Peri.   50.86816     -0.02273573     -0.53612336
 +/-0.0000009      Node    66.32677     +0.35708521     -0.79272983
e   1.0011404      Incl.   67.12663     +0.93379507     +0.29008821
From 1126 observations 2023 Nov. 5-2025 May 23, mean residual 0".6.

・ 星図

・ 光度変化

        m1 = 8.5 + 5 logΔ + 15.5 log r(t - 10)

---------------------------------------------------------------------

軌道要素はM.P.E.C. 2025-M120に掲載されたものです。
星図はステラナビゲータ Ver.11 (アストロアーツ) で作成したものです。
光度グラフはComet for Windowsで作成したものです。

---------------------------------------------------------------------

Copyright(C) Seiichi Yoshida (comet@aerith.net). All rights reserved.